EN

Hourly Weather Amazonas

Today, 23 January, Saturday

Time Temperature Precipitation Wind Pressure Humidity
00:00 +25°C° 0 mm 5 mps 720 mmHg 66%
01:00 +25°C° 0 mm 5 mps 720 mmHg 67%
02:00 +23°C° 0 mm 4 mps 720 mmHg 67%
03:00 +23°C° 0 mm 4 mps 720 mmHg 67%
04:00 +22°C° 0 mm 3 mps 720 mmHg 69%
05:00 +21°C° 0 mm 3 mps 720 mmHg 72%
06:00 +21°C° 0 mm 2 mps 720 mmHg 74%
07:00 +24°C° 0 mm 3 mps 721 mmHg 66%
08:00 +26°C° 0 mm 3 mps 722 mmHg 57%
09:00 +29°C° 0 mm 4 mps 722 mmHg 49%
10:00 +32°C° 0 mm 4 mps 722 mmHg 42%
11:00 +34°C° 0 mm 4 mps 721 mmHg 35%
12:00 +36°C° 0 mm 4 mps 721 mmHg 29%
13:00 +36°C° 0 mm 4 mps 720 mmHg 28%
14:00 +36°C° 0 mm 4 mps 719 mmHg 27%
15:00 +37°C° 0 mm 4 mps 719 mmHg 26%
16:00 +35°C° 0 mm 4 mps 719 mmHg 29%
17:00 +34°C° 0 mm 3 mps 718 mmHg 32%
18:00 +33°C° 0 mm 3 mps 718 mmHg 35%
19:00 +30°C° 0 mm 3 mps 719 mmHg 40%
20:00 +29°C° 0 mm 4 mps 719 mmHg 45%
21:00 +28°C° 0 mm 4 mps 719 mmHg 50%
22:00 +27°C° 0 mm 4 mps 719 mmHg 56%
23:00 +26°C° 0 mm 4 mps 719 mmHg 61%

Tomorrow, 24 January, Sunday

Time Temperature Precipitation Wind Pressure Humidity
00:00 +25°C° 0 mm 4 mps 719 mmHg 67%
01:00 +23°C° 0 mm 4 mps 719 mmHg 68%
02:00 +24°C° 0 mm 3 mps 719 mmHg 69%
03:00 +22°C° 0 mm 3 mps 718 mmHg 70%
04:00 +22°C° 0 mm 3 mps 719 mmHg 70%
05:00 +22°C° 0 mm 3 mps 719 mmHg 70%
06:00 +21°C° 0 mm 2 mps 719 mmHg 70%
07:00 +25°C° 0 mm 3 mps 720 mmHg 62%
08:00 +27°C° 0 mm 3 mps 720 mmHg 55%
09:00 +29°C° 0 mm 4 mps 721 mmHg 47%
10:00 +32°C° 0 mm 4 mps 721 mmHg 42%
11:00 +34°C° 0 mm 4 mps 720 mmHg 37%
12:00 +36°C° 0 mm 3 mps 720 mmHg 31%
13:00 +36°C° 0 mm 4 mps 719 mmHg 32%
14:00 +36°C° 0 mm 4 mps 719 mmHg 32%
15:00 +36°C° 0 mm 4 mps 718 mmHg 33%
16:00 +35°C° 0 mm 4 mps 718 mmHg 37%
17:00 +34°C° 0 mm 4 mps 718 mmHg 40%
18:00 +32°C° 0 mm 5 mps 717 mmHg 44%
19:00 +30°C° 0 mm 4 mps 718 mmHg 48%
20:00 +29°C° 0 mm 4 mps 718 mmHg 52%
21:00 +27°C° 0 mm 4 mps 718 mmHg 55%
22:00 +26°C° 0 mm 3 mps 718 mmHg 61%
23:00 +26°C° 0 mm 3 mps 718 mmHg 66%

Day after tomorrow, 25 January, Monday

Time Temperature Precipitation Wind Pressure Humidity
00:00 +25°C° 0 mm 3 mps 718 mmHg 72%
01:00 +24°C° 0 mm 3 mps 718 mmHg 73%
02:00 +24°C° 0 mm 3 mps 718 mmHg 75%
03:00 +23°C° 0 mm 2 mps 717 mmHg 77%
04:00 +23°C° 0 mm 2 mps 718 mmHg 76%
05:00 +23°C° 0 mm 2 mps 718 mmHg 76%
06:00 +23°C° 0 mm 2 mps 719 mmHg 75%
07:00 +24°C° 0 mm 3 mps 719 mmHg 68%
08:00 +26°C° 0 mm 3 mps 720 mmHg 62%
09:00 +28°C° 0 mm 4 mps 720 mmHg 55%
10:00 +30°C° 0 mm 4 mps 720 mmHg 48%
11:00 +33°C° 0 mm 4 mps 720 mmHg 42%
12:00 +35°C° 0 mm 4 mps 720 mmHg 36%
13:00 +36°C° 0 mm 4 mps 719 mmHg 34%
14:00 +36°C° 0 mm 4 mps 718 mmHg 33%
15:00 +37°C° 0 mm 4 mps 717 mmHg 31%
16:00 +36°C° 0 mm 4 mps 717 mmHg 35%
17:00 +34°C° 0 mm 4 mps 717 mmHg 39%
18:00 +33°C° 0 mm 4 mps 717 mmHg 42%
19:00 +30°C° 0 mm 4 mps 717 mmHg 47%
20:00 +29°C° 0 mm 4 mps 718 mmHg 51%
21:00 +27°C° 0 mm 3 mps 718 mmHg 56%
22:00 +27°C° 0 mm 3 mps 718 mmHg 59%
23:00 +26°C° 0 mm 3 mps 718 mmHg 63%

26 January, Tuesday

Time Temperature Precipitation Wind Pressure Humidity
00:00 +25°C° 0 mm 3 mps 718 mmHg 66%
01:00 +25°C° 0 mm 3 mps 718 mmHg 69%
02:00 +24°C° 0 mm 3 mps 718 mmHg 72%
03:00 +24°C° 0 mm 3 mps 718 mmHg 75%
04:00 +22°C° 0 mm 3 mps 718 mmHg 75%
05:00 +22°C° 0 mm 3 mps 718 mmHg 75%
06:00 +23°C° 0 mm 2 mps 719 mmHg 75%
07:00 +25°C° 0 mm 3 mps 719 mmHg 65%
08:00 +28°C° 0 mm 4 mps 720 mmHg 55%
09:00 +30°C° 0 mm 4 mps 720 mmHg 46%
10:00 +33°C° 0 mm 4 mps 720 mmHg 41%
11:00 +35°C° 0 mm 3 mps 720 mmHg 36%
12:00 +36°C° 0 mm 3 mps 719 mmHg 32%
13:00 +37°C° 0 mm 3 mps 719 mmHg 30%
14:00 +37°C° 0 mm 3 mps 718 mmHg 28%
15:00 +38°C° 0 mm 4 mps 717 mmHg 26%
16:00 +36°C° 0 mm 4 mps 717 mmHg 27%
17:00 +35°C° 0 mm 3 mps 717 mmHg 29%
18:00 +34°C° 0 mm 3 mps 717 mmHg 30%
19:00 +31°C° 0 mm 3 mps 717 mmHg 34%
20:00 +29°C° 0 mm 3 mps 717 mmHg 38%
21:00 +27°C° 0 mm 3 mps 718 mmHg 42%
22:00 +26°C° 0 mm 3 mps 718 mmHg 50%
23:00 +26°C° 0 mm 3 mps 718 mmHg 59%

27 January, Wednesday

Time Temperature Precipitation Wind Pressure Humidity
00:00 +25°C° 0 mm 3 mps 719 mmHg 67%
01:00 +25°C° 0 mm 3 mps 718 mmHg 68%
02:00 +24°C° 0 mm 3 mps 718 mmHg 69%
03:00 +24°C° 0 mm 3 mps 718 mmHg 71%
04:00 +22°C° 0 mm 3 mps 718 mmHg 70%
05:00 +22°C° 0 mm 3 mps 719 mmHg 69%
06:00 +21°C° 0 mm 2 mps 719 mmHg 69%
07:00 +25°C° 0 mm 2 mps 719 mmHg 60%
08:00 +28°C° 0 mm 3 mps 720 mmHg 52%
09:00 +30°C° 0 mm 3 mps 720 mmHg 43%
10:00 +34°C° 0 mm 3 mps 720 mmHg 37%
11:00 +36°C° 0 mm 2 mps 720 mmHg 32%
12:00 +38°C° 0 mm 2 mps 720 mmHg 26%
13:00 +38°C° 0 mm 3 mps 719 mmHg 25%
14:00 +38°C° 0 mm 3 mps 718 mmHg 24%
15:00 +39°C° 0 mm 3 mps 717 mmHg 22%
16:00 +37°C° 0 mm 3 mps 717 mmHg 26%
17:00 +36°C° 0 mm 3 mps 717 mmHg 29%
18:00 +34°C° 0 mm 3 mps 717 mmHg 32%
19:00 +33°C° 0 mm 3 mps 717 mmHg 39%
20:00 +30°C° 0 mm 4 mps 717 mmHg 46%
21:00 +29°C° 0 mm 4 mps 718 mmHg 52%
22:00 +27°C° 0 mm 4 mps 718 mmHg 58%
23:00 +26°C° 0 mm 3 mps 718 mmHg 64%

28 January, Thursday

Time Temperature Precipitation Wind Pressure Humidity
00:00 +25°C° 0 mm 3 mps 718 mmHg 70%
01:00 +25°C° 0 mm 3 mps 718 mmHg 70%
02:00 +25°C° 0 mm 3 mps 718 mmHg 70%
03:00 +24°C° 0 mm 3 mps 717 mmHg 69%
04:00 +24°C° 0 mm 2 mps 718 mmHg 70%
05:00 +23°C° 0 mm 2 mps 718 mmHg 72%
06:00 +23°C° 0 mm 2 mps 718 mmHg 73%
07:00 +25°C° 0 mm 2 mps 719 mmHg 66%
08:00 +27°C° 0 mm 2 mps 719 mmHg 60%
09:00 +29°C° 0 mm 2 mps 719 mmHg 54%
10:00 +32°C° 0 mm 2 mps 719 mmHg 45%
11:00 +35°C° 0 mm 1 mps 719 mmHg 37%
12:00 +40°C° 0 mm 1 mps 719 mmHg 29%
13:00 +39°C° 0 mm 1 mps 718 mmHg 29%
14:00 +37°C° 0 mm 1 mps 717 mmHg 29%
15:00 +36°C° 0 mm 1 mps 717 mmHg 29%
Show more